TimeEDT,TemperatureF,Dew PointF,Humidity,Sea Level PressureIn,VisibilityMPH,Wind Direction,Wind SpeedMPH,Gust SpeedMPH,PrecipitationIn,Events,Conditions,WindDirDegrees,DateUTC
12:15 AM,61.3,56.3,83,30.11,10.0,Calm,Calm,-,N/A,,Scattered Clouds,0,2013-09-30 04:15:00
12:35 AM,59.0,57.2,94,30.10,0.2,Calm,Calm,-,N/A,Fog,Fog,0,2013-09-30 04:35:00
12:55 AM,59.5,56.5,90,30.11,10.0,Calm,Calm,-,N/A,,Scattered Clouds,0,2013-09-30 04:55:00
1:15 AM,60.4,57.0,88,30.11,10.0,Calm,Calm,-,N/A,,Mostly Cloudy,0,2013-09-30 05:15:00
1:35 AM,59.9,56.3,88,30.11,10.0,Calm,Calm,-,N/A,,Scattered Clouds,0,2013-09-30 05:35:00
1:55 AM,60.4,56.5,87,30.10,10.0,Calm,Calm,-,N/A,,Overcast,0,2013-09-30 05:55:00
2:15 AM,61.7,55.8,81,30.10,10.0,Calm,Calm,-,N/A,,Mostly Cloudy,0,2013-09-30 06:15:00
2:35 AM,59.5,57.0,91,30.10,10.0,Calm,Calm,-,N/A,,Scattered Clouds,0,2013-09-30 06:35:00
2:55 AM,60.6,56.3,86,30.09,10.0,Calm,Calm,-,N/A,,Scattered Clouds,0,2013-09-30 06:55:00
3:15 AM,59.7,55.8,87,30.09,10.0,Calm,Calm,-,N/A,,Scattered Clouds,0,2013-09-30 07:15:00
3:35 AM,59.9,56.3,88,30.08,10.0,Calm,Calm,-,N/A,,Mostly Cloudy,0,2013-09-30 07:35:00
3:55 AM,59.2,56.3,90,30.08,10.0,Calm,Calm,-,N/A,,Overcast,0,2013-09-30 07:55:00
4:15 AM,58.3,55.9,92,30.09,10.0,Calm,Calm,-,N/A,,Overcast,0,2013-09-30 08:15:00
4:35 AM,58.6,56.3,92,30.09,10.0,Calm,Calm,-,N/A,,Overcast,0,2013-09-30 08:35:00
4:55 AM,59.0,55.9,90,30.09,10.0,Calm,Calm,-,N/A,,Overcast,0,2013-09-30 08:55:00
5:15 AM,58.1,55.9,93,30.10,7.0,Calm,Calm,-,N/A,,Overcast,0,2013-09-30 09:15:00
5:35 AM,57.7,55.4,92,30.10,7.0,Calm,Calm,-,N/A,,Overcast,0,2013-09-30 09:35:00
5:55 AM,56.7,55.0,94,30.10,1.0,Calm,Calm,-,N/A,,Overcast,0,2013-09-30 09:55:00
6:15 AM,57.6,55.2,92,30.11,10.0,Calm,Calm,-,N/A,,Mostly Cloudy,0,2013-09-30 10:15:00
6:35 AM,57.4,55.4,93,30.12,10.0,Calm,Calm,-,N/A,,Mostly Cloudy,0,2013-09-30 10:35:00
6:55 AM,56.5,54.5,93,30.12,5.0,SE,3.5,-,N/A,,Overcast,140,2013-09-30 10:55:00
7:15 AM,56.3,54.7,94,30.12,1.0,Calm,Calm,-,N/A,,Overcast,0,2013-09-30 11:15:00
7:35 AM,57.0,55.4,94,30.12,4.0,SSE,4.6,-,N/A,,Overcast,150,2013-09-30 11:35:00
7:55 AM,59.5,55.2,86,30.13,10.0,SSE,3.5,-,N/A,,Scattered Clouds,160,2013-09-30 11:55:00
8:15 AM,56.7,54.5,92,30.13,7.0,Calm,Calm,-,N/A,,Scattered Clouds,0,2013-09-30 12:15:00
8:35 AM,57.7,55.2,91,30.13,10.0,Calm,Calm,-,N/A,,Clear,0,2013-09-30 12:35:00
8:55 AM,56.8,55.0,94,30.13,0.2,Calm,Calm,-,N/A,Fog,Fog,0,2013-09-30 12:55:00
9:15 AM,59.2,56.3,90,30.14,10.0,Calm,Calm,-,N/A,,Scattered Clouds,0,2013-09-30 13:15:00
9:35 AM,59.7,57.4,92,30.13,3.0,Calm,Calm,-,N/A,,Mostly Cloudy,0,2013-09-30 13:35:00
9:55 AM,63.0,57.6,82,30.13,10.0,Calm,Calm,-,N/A,,Overcast,0,2013-09-30 13:55:00
10:15 AM,63.9,57.4,79,30.14,10.0,Calm,Calm,-,N/A,,Scattered Clouds,0,2013-09-30 14:15:00
10:35 AM,64.4,57.4,78,30.14,10.0,Calm,Calm,-,N/A,,Scattered Clouds,0,2013-09-30 14:35:00
10:55 AM,64.4,58.1,80,30.14,10.0,NW,4.6,-,N/A,,Mostly Cloudy,310,2013-09-30 14:55:00
11:15 AM,64.2,57.6,79,30.14,10.0,NW,4.6,-,N/A,,Overcast,310,2013-09-30 15:15:00
11:35 AM,64.6,57.4,77,30.13,10.0,West,5.8,-,N/A,,Mostly Cloudy,270,2013-09-30 15:35:00
11:55 AM,65.3,57.4,76,30.13,10.0,WSW,4.6,-,N/A,,Overcast,240,2013-09-30 15:55:00
12:15 PM,67.1,57.2,70,30.12,10.0,West,4.6,-,N/A,,Overcast,270,2013-09-30 16:15:00
12:35 PM,67.1,58.3,73,30.12,10.0,SSW,4.6,-,N/A,,Overcast,200,2013-09-30 16:35:00
12:55 PM,68.9,57.7,68,30.12,10.0,SSW,5.8,-,N/A,,Mostly Cloudy,210,2013-09-30 16:55:00
1:15 PM,69.4,57.2,65,30.11,10.0,South,4.6,-,N/A,,Mostly Cloudy,170,2013-09-30 17:15:00
1:35 PM,68.9,57.7,68,30.11,10.0,SSW,3.5,-,N/A,,Mostly Cloudy,210,2013-09-30 17:35:00
1:55 PM,71.4,57.9,62,30.10,10.0,SE,3.5,-,N/A,,Overcast,130,2013-09-30 17:55:00
2:15 PM,70.3,57.6,64,30.10,10.0,NW,3.5,-,N/A,,Overcast,320,2013-09-30 18:15:00
2:35 PM,68.2,58.3,71,30.09,10.0,NNE,4.6,-,N/A,,Overcast,30,2013-09-30 18:35:00
2:55 PM,68.2,58.1,70,30.09,10.0,ENE,3.5,-,N/A,,Overcast,60,2013-09-30 18:55:00
3:15 PM,68.4,59.2,72,30.08,10.0,NE,3.5,-,N/A,,Overcast,50,2013-09-30 19:15:00
3:35 PM,68.4,59.2,72,30.08,10.0,North,3.5,-,N/A,,Overcast,360,2013-09-30 19:35:00
3:55 PM,69.8,59.4,69,30.08,10.0,NNE,3.5,-,N/A,,Overcast,20,2013-09-30 19:55:00
4:15 PM,69.1,58.3,68,30.07,10.0,Calm,Calm,-,N/A,,Overcast,0,2013-09-30 20:15:00
4:35 PM,68.5,58.8,71,30.07,10.0,Calm,Calm,-,N/A,,Overcast,0,2013-09-30 20:35:00
4:55 PM,68.4,58.3,70,30.07,10.0,Calm,Calm,-,N/A,,Overcast,0,2013-09-30 20:55:00
5:15 PM,68.2,59.2,73,30.07,10.0,Calm,Calm,-,N/A,,Overcast,0,2013-09-30 21:15:00
5:35 PM,68.2,59.0,72,30.07,10.0,Calm,Calm,-,N/A,,Overcast,0,2013-09-30 21:35:00
5:55 PM,66.9,59.9,78,30.08,10.0,Calm,Calm,-,N/A,,Overcast,0,2013-09-30 21:55:00
6:15 PM,67.1,59.2,76,30.08,10.0,Calm,Calm,-,N/A,,Overcast,0,2013-09-30 22:15:00
6:35 PM,67.1,58.5,74,30.08,10.0,Calm,Calm,-,N/A,,Overcast,0,2013-09-30 22:35:00
6:55 PM,67.1,58.6,74,30.09,10.0,Calm,Calm,-,N/A,,Overcast,0,2013-09-30 22:55:00
7:15 PM,66.2,58.6,77,30.10,10.0,Calm,Calm,-,N/A,,Overcast,0,2013-09-30 23:15:00
7:35 PM,66.6,58.3,75,30.10,10.0,Calm,Calm,-,N/A,,Overcast,0,2013-09-30 23:35:00
7:55 PM,66.4,58.6,76,30.11,10.0,Calm,Calm,-,N/A,,Overcast,0,2013-09-30 23:55:00
8:15 PM,64.4,59.0,83,30.11,10.0,Calm,Calm,-,N/A,,Mostly Cloudy,0,2013-10-01 00:15:00
8:35 PM,65.3,58.3,78,30.11,10.0,SE,3.5,-,N/A,,Scattered Clouds,140,2013-10-01 00:35:00
8:55 PM,64.6,59.2,83,30.12,10.0,SSE,3.5,-,N/A,,Scattered Clouds,150,2013-10-01 00:55:00
9:15 PM,64.8,59.0,82,30.12,10.0,Calm,Calm,-,N/A,,Mostly Cloudy,0,2013-10-01 01:15:00
9:35 PM,64.6,59.0,82,30.12,10.0,SSE,3.5,-,N/A,,Mostly Cloudy,160,2013-10-01 01:35:00
9:55 PM,63.5,59.0,85,30.12,10.0,Calm,Calm,-,N/A,,Mostly Cloudy,0,2013-10-01 01:55:00
10:15 PM,62.6,58.6,87,30.13,10.0,Calm,Calm,-,N/A,,Mostly Cloudy,0,2013-10-01 02:15:00
10:35 PM,62.2,58.6,88,30.13,10.0,NW,3.5,-,N/A,,Scattered Clouds,320,2013-10-01 02:35:00
10:55 PM,62.1,58.8,89,30.13,10.0,Calm,Calm,-,N/A,,Clear,0,2013-10-01 02:55:00
11:15 PM,61.5,59.2,92,30.13,7.0,Calm,Calm,-,N/A,,Clear,0,2013-10-01 03:15:00
11:35 PM,60.8,58.1,91,30.13,7.0,Calm,Calm,-,N/A,,Clear,0,2013-10-01 03:35:00
11:55 PM,60.3,57.9,92,30.13,5.0,West,3.5,-,N/A,,Clear,270,2013-10-01 03:55:00